This demonstration page uses our WeatherBlox Daily Observations layout. Learn more.

Left ArrowRight Arrow

Hourly Observations for January 21, 2018

Temp ( °F °C ) Dew Point ( °F °C ) Humidity (%) Winds ( mph kmh ) Pressure ( in mb ) Visibility ( mi km ) Precip ( " mm )
12:30 am 00:30 Cloudy 34 1 30 -1 87 87 NNE 14 22 29.91 1013 10 16 0.00 0.00
12:56 am 00:56 Cloudy 34 1.1 30 -1.1 85 85 NNE 13 20 29.84 1010 10 16 0.00 0.00
1:18 am 01:18 Cloudy 34 1 30 -1 87 87 NNE 14 22 29.88 1012 10 16 0.00 0.00
1:56 am 01:56 Cloudy 34 1.1 30 -1.1 85 85 NNE 15 24 29.83 1010 10 16 0.00 0.00
2:56 am 02:56 Cloudy 33 0.6 30 -1.1 89 89 NNE 14 22 29.83 1010 10 16 0.00 0.00
3:49 am 03:49 Cloudy 34 1 30 -1 87 87 NNE 15 24 29.88 1012 10 16 0.00 0.00
3:56 am 03:56 Cloudy 33 0.6 30 -1.1 89 89 NNE 13 20 29.82 1010 10 16 0.00 0.00
4:56 am 04:56 Cloudy 32 0 29 -1.7 88 88 NNE 14 22 29.81 1010 10 16 0.00 0.00
5:56 am 05:56 Cloudy 32 0 30 -1.1 92 92 N 15 24 29.83 1010 8 13 0.00 0.00
6:27 am 06:27 Cloudy with Light Wintry Mix 32 0 30 -1 93 93 NNE 16 26 29.85 1011 5 8 0.00 0.03
6:56 am 06:56 Cloudy with Light Wintry Mix 32 0 30 -1.1 92 92 N 15 24 29.82 1010 4 6 0.00 0.03
7:39 am 07:39 Cloudy with Light Wintry Mix 32 0 30 -1 93 93 N 15 24 29.88 1012 3 5 0.00 0.00
7:56 am 07:56 Cloudy with Light Wintry Mix 32 0 31 -0.6 96 96 NNE 18 30 29.82 1010 3 5 0.00 0.03
8:13 am 08:13 Cloudy with Light Wintry Mix 32 0 30 -1 93 93 NNE 16 26 29.85 1011 2 3 0.00 0.00
8:38 am 08:38 Cloudy with Light Wintry Mix 32 0 30 -1 93 93 NNE 14 22 29.85 1011 2 3 0.00 0.03
8:48 am 08:48 Cloudy with Light Wintry Mix 32 0 30 -1 93 93 NNE 14 22 29.85 1011 2 2 0.00 0.03
8:56 am 08:56 Cloudy with Light Wintry Mix 32 0 31 -0.6 96 96 NNE 16 26 29.83 1010 2 2 0.00 0.03
9:16 am 09:16 Cloudy with Mist and Fog 34 1 32 0 93 93 N 14 22 29.88 1012 2 3 0.00 0.03
9:46 am 09:46 Cloudy with Light Wintry Mix 34 1 32 0 93 93 N 13 20 29.88 1012 2 3 0.00 0.03
9:56 am 09:56 Cloudy with Light Wintry Mix 33 0.6 32 0 96 96 NNW 13 20 29.86 1011 2 3 0.00 0.03
10:08 am 10:08 Cloudy with Mist and Fog 34 1 32 0 93 93 N 15 24 29.88 1012 2 3 0.00 0.00
10:56 am 10:56 Cloudy with Mist and Fog 33 0.6 32 0 96 96 N 21 33 29.80 1009 3 4 0.00 0.03
11:56 am 11:56 Cloudy with Light Wintry Mix 33 0.6 32 0 96 96 NNE 24 39 29.78 1008 2 3 0.00 0.03
12:08 pm 12:08 Cloudy with Light Wintry Mix 34 1 32 0 93 93 N 24 39 29.83 1010 2 3 0.00 0.03
12:22 pm 12:22 Cloudy with Light Wintry Mix 34 1 32 0 93 93 NNE 25 41 29.80 1009 2 3 0.00 0.03
12:51 pm 12:51 Cloudy with Light Rain 34 1 32 0 93 93 NNE 25 41 29.80 1009 2 2 0.00 0.03
12:56 pm 12:56 Cloudy with Light Rain 32 0 32 0 100 100 NNE 24 39 29.75 1007 1 2 0.00 0.03
1:15 pm 13:15 Cloudy with Light Wintry Mix 32 0 30 -1 93 93 NNE 22 35 29.77 1008 2 3 0.00 0.00
1:23 pm 13:23 Cloudy with Light Wintry Mix 32 0 30 -1 93 93 NNE 22 35 29.77 1008 2 2 0.00 0.03
1:53 pm 13:53 Cloudy with Light Wintry Mix 34 1 32 0 93 93 NNE 23 37 29.77 1008 2 3 0.00 0.03
1:56 pm 13:56 Cloudy with Light Wintry Mix 33 0.6 32 0 96 96 NNE 21 33 29.72 1007 2 3 0.00 0.03
2:23 pm 14:23 Cloudy with Light Rain 34 1 32 0 93 93 NNE 23 37 29.77 1008 2 2 0.00 0.00
2:56 pm 14:56 Cloudy with Light Rain 33 0.6 32 0 96 96 NNE 24 39 29.69 1006 2 3 0.00 0.03
3:10 pm 15:10 Cloudy with Light Rain 34 1 32 0 93 93 NNE 29 46 29.74 1007 2 3 0.00 0.03
3:21 pm 15:21 Cloudy with Light Wintry Mix 34 1 32 0 93 93 NNE 30 48 29.74 1007 3 5 0.00 0.00
3:56 pm 15:56 Cloudy with Light Wintry Mix 33 0.6 32 0 96 96 NNE 18 30 29.75 1007 4 6 0.00 0.03
4:06 pm 16:06 Cloudy with Light Rain 34 1 32 0 93 93 NNE 20 31 29.80 1009 2 3 0.00 0.03
4:40 pm 16:40 Cloudy with Light Rain 34 1 32 0 93 93 NNE 16 26 29.80 1009 2 3 0.01 0.25
4:56 pm 16:56 Cloudy with Light Rain 33 0.6 32 0 96 96 NNE 20 31 29.74 1007 1 2 0.01 0.25
5:54 pm 17:54 Cloudy with Light Rain 34 1 32 0 93 93 NE 24 39 29.77 1008 3 4 0.03 0.76
5:56 pm 17:56 Cloudy with Light Rain 33 0.6 32 0 96 96 NNE 23 37 29.71 1006 3 5 0.03 0.76
6:10 pm 18:10 Cloudy with Light Rain 34 1 32 0 93 93 NNE 22 35 29.77 1008 3 4 0.01 0.25
6:17 pm 18:17 Cloudy with Light Rain 34 1 32 0 93 93 NNE 20 31 29.80 1009 4 6 0.01 0.25
6:56 pm 18:56 Cloudy with Light Rain 33 0.6 32 0 96 96 NNE 24 39 29.71 1006 4 6 0.01 0.25
7:52 pm 19:52 Windy with Snow Likely 34 1 30 -1 87 87 NE 23 37 29.77 1008 8 13 0.00 0.03
7:56 pm 19:56 Windy with Snow Likely 33 0.6 31 -0.6 92 92 NE 22 35 29.71 1006 8 13 0.00 0.03
8:56 pm 20:56 Cloudy with Light Wintry Mix 32 0 31 -0.6 96 96 NE 25 41 29.70 1006 10 16 0.00 0.03
9:18 pm 21:18 Cloudy with Light Wintry Mix 32 0 30 -1 93 93 NE 25 41 29.71 1006 8 13 0.00 0.03
9:56 pm 21:56 Cloudy with Light Wintry Mix 32 0 31 -0.6 96 96 NE 22 35 29.66 1004 10 16 0.01 0.25
11:56 pm 23:56 Cloudy with Light Wintry Mix 32 0 31 -0.6 96 96 NNE 25 41 29.64 1004 3 4 0.01 0.25

Powered by AerisWeather